TimeEST,TemperatureF,Dew PointF,Humidity,Sea Level PressureIn,VisibilityMPH,Wind Direction,Wind SpeedMPH,Gust SpeedMPH,PrecipitationIn,Events,Conditions,WindDirDegrees,DateUTC
12:04 AM,-9999,-9999,N/A,29.43,4.0,NNE,43.7,67.9,0.00,,Unknown,30,2012-11-08 05:04:00
12:53 AM,-9999,-9999,N/A,29.41,3.0,NNE,44.9,59.8,0.02,,Unknown,30,2012-11-08 05:53:00
1:00 AM,-9999,-9999,N/A,29.40,2.5,NNE,35.7,59.8,0.01,,Unknown,30,2012-11-08 06:00:00
1:13 AM,-9999,-9999,N/A,29.40,4.0,NNE,41.4,57.5,0.02,,Unknown,20,2012-11-08 06:13:00
1:26 AM,-9999,-9999,N/A,29.38,2.5,NNE,41.4,54.1,0.05,,Unknown,20,2012-11-08 06:26:00
1:43 AM,-9999,-9999,N/A,29.36,1.5,NNE,43.7,61.0,0.13,,Unknown,20,2012-11-08 06:43:00
1:53 AM,-9999,-9999,N/A,29.37,2.0,NNE,44.9,65.6,0.16,,Unknown,20,2012-11-08 06:53:00
2:24 AM,-9999,-9999,N/A,29.34,3.0,NNE,43.7,59.8,0.05,,Unknown,20,2012-11-08 07:24:00
2:32 AM,-9999,-9999,N/A,29.33,1.8,NNE,44.9,61.0,0.10,,Unknown,20,2012-11-08 07:32:00
2:46 AM,-9999,-9999,N/A,29.32,2.5,NNE,40.3,61.0,0.12,,Unknown,20,2012-11-08 07:46:00
2:53 AM,-9999,-9999,N/A,29.32,2.5,NNE,46.0,65.6,0.14,,Unknown,20,2012-11-08 07:53:00
3:53 AM,48.9,48.0,97,29.29,2.0,NNE,44.9,58.7,0.31,Rain,Light Rain,20,2012-11-08 08:53:00
4:50 AM,48.2,48.2,100,29.27,3.0,NNE,39.1,57.5,0.21,,Overcast,20,2012-11-08 09:50:00
4:53 AM,50.0,48.0,93,29.26,2.0,NNE,46.0,57.5,0.23,,Overcast,20,2012-11-08 09:53:00
5:00 AM,50.0,48.2,94,29.26,1.2,NNE,40.3,58.7,0.05,,Overcast,20,2012-11-08 10:00:00
5:30 AM,50.0,48.2,94,29.25,2.0,NNE,44.9,54.1,0.24,Rain,Light Rain,20,2012-11-08 10:30:00
5:53 AM,50.0,48.9,96,29.24,5.0,North,39.1,56.4,0.26,,Overcast,10,2012-11-08 10:53:00
6:53 AM,53.1,52.0,96,29.23,6.0,North,28.8,39.1,0.03,,Overcast,10,2012-11-08 11:53:00
7:53 AM,55.9,53.1,90,29.20,6.0,NNE,26.5,-,0.02,Rain,Light Rain,20,2012-11-08 12:53:00
8:53 AM,55.0,53.1,93,29.17,6.0,NNE,21.9,39.1,0.03,Rain,Light Rain,30,2012-11-08 13:53:00
9:53 AM,55.9,53.1,90,29.17,5.0,NE,25.3,35.7,0.00,Rain,Light Rain,50,2012-11-08 14:53:00
10:34 AM,55.4,53.6,94,29.17,1.8,NE,24.2,34.5,0.06,Rain,Heavy Rain,50,2012-11-08 15:34:00
10:53 AM,55.0,53.1,93,29.18,1.8,NE,20.7,29.9,0.08,Rain,Light Rain,50,2012-11-08 15:53:00
11:00 AM,55.4,53.6,94,29.17,3.0,NE,20.7,33.4,0.00,Rain,Light Rain,50,2012-11-08 16:00:00
11:53 AM,55.0,54.0,96,29.17,3.0,NNE,25.3,35.7,0.02,Rain,Light Rain,30,2012-11-08 16:53:00
11:58 AM,55.4,53.6,94,29.17,2.5,NE,25.3,34.5,0.00,Rain,Light Rain,40,2012-11-08 16:58:00
12:05 PM,53.6,53.6,100,29.17,3.0,NE,24.2,36.8,0.00,Rain,Light Rain,40,2012-11-08 17:05:00
12:53 PM,54.0,52.0,93,29.18,5.0,North,24.2,33.4,0.00,Rain,Light Rain,10,2012-11-08 17:53:00
1:53 PM,51.1,48.9,92,29.23,4.0,North,29.9,39.1,0.00,Rain,Light Rain,10,2012-11-08 18:53:00
2:50 PM,50.0,46.4,87,29.28,9.0,North,32.2,47.2,0.00,,Overcast,360,2012-11-08 19:50:00
2:53 PM,51.1,46.9,86,29.29,10.0,North,29.9,47.2,0.00,,Overcast,360,2012-11-08 19:53:00
3:53 PM,51.1,46.9,86,29.34,10.0,North,28.8,44.9,N/A,,Mostly Cloudy,360,2012-11-08 20:53:00
4:46 PM,50.0,48.2,94,29.39,10.0,NNW,27.6,34.5,0.01,,Overcast,330,2012-11-08 21:46:00
4:53 PM,50.0,48.0,93,29.40,10.0,NNW,27.6,36.8,0.01,,Overcast,330,2012-11-08 21:53:00
4:55 PM,50.0,46.4,87,29.40,10.0,NNW,27.6,38.0,N/A,,Overcast,330,2012-11-08 21:55:00
5:02 PM,48.2,46.4,93,29.40,10.0,NNW,28.8,39.1,N/A,,Overcast,330,2012-11-08 22:02:00
5:53 PM,48.0,46.0,93,29.45,9.0,NNW,31.1,47.2,0.00,Rain,Light Rain,330,2012-11-08 22:53:00
6:53 PM,48.0,46.0,93,29.49,10.0,NNW,33.4,49.5,0.00,,Overcast,340,2012-11-08 23:53:00
7:53 PM,46.0,44.1,93,29.52,7.0,NNW,35.7,50.6,0.00,Rain,Light Rain,330,2012-11-09 00:53:00
8:53 PM,46.0,44.1,93,29.56,6.0,NNW,33.4,46.0,0.00,Rain,Light Rain,330,2012-11-09 01:53:00
9:36 PM,46.4,44.6,93,29.58,9.0,NNW,28.8,43.7,0.00,,Overcast,330,2012-11-09 02:36:00
9:53 PM,46.0,44.1,93,29.59,5.0,NNW,29.9,44.9,0.00,Rain,Light Rain,330,2012-11-09 02:53:00
10:08 PM,44.6,42.8,93,29.59,6.0,NNW,28.8,44.9,0.00,,Overcast,330,2012-11-09 03:08:00
10:29 PM,44.6,42.8,93,29.60,4.0,NW,32.2,42.6,0.00,,Overcast,320,2012-11-09 03:29:00
10:53 PM,45.0,43.0,93,29.61,3.0,NNW,31.1,43.7,0.00,,Overcast,330,2012-11-09 03:53:00
11:15 PM,44.6,42.8,93,29.62,4.0,NNW,31.1,44.9,0.01,,Overcast,330,2012-11-09 04:15:00
11:32 PM,44.6,42.8,93,29.62,5.0,NNW,29.9,41.4,0.01,,Overcast,330,2012-11-09 04:32:00
11:40 PM,44.6,42.8,93,29.62,5.0,NNW,32.2,43.7,0.01,,Overcast,330,2012-11-09 04:40:00
11:53 PM,45.0,42.1,90,29.63,10.0,NNW,26.5,39.1,0.01,,Overcast,330,2012-11-09 04:53:00